Header for Extended Forecast Station List Page

Search by: ID | Name | Date | Parm | Value | Avg | % Avg
Sort by: ID | Name | Date | Parm | Value | Avg | % Avg

Enter search or view all records.

Click on id for station plot
#IDNameDateParmValueAvg% Avg
0HWRI1BIG LOST-AT HOWELL RANCH NEAR CHILLY07-22-2021DISCHARGE (KAF)174042
1MACI1BIG LOST-MACKAY RESERVOIR NEAR MACKAY07-22-2021INFLOW (KAF)242887
2HALI1BIG WOOD-AT HAILEY07-22-2021DISCHARGE (KAF)295849
3MAGI1BIG WOOD-MAGIC DAM07-22-2021INFLOW (KAF)72924
4BITM8BITTERROOT-NEAR MISSOULA07-22-2021DISCHARGE (KAF)18423479
5BONM8BLACKFOOT-NEAR BONNER07-22-2021DISCHARGE (KAF)15918188
6BIGI1BOISE-AT GLENWOOD BRIDGE07-22-2021DISCHARGE (KAF)12314585
7LUCI1BOISE-LUCKY PEAK DAM07-22-2021INFLOW (KAF)239MM
8PARI1BOISE-NEAR PARMA07-22-2021DISCHARGE (KAF)18722185
9HOTI1BRUNEAU-NEAR HOT SPRINGS07-22-2021DISCHARGE (KAF)92240
10BULO3BULLY CREEK-BULLY CREEK DAM07-22-2021INFLOW (KAF)M0M
11BUDW1BUMPING-BUMPING LAKE DAM07-22-2021INFLOW (KAF)2322103
12CHDW1CHELAN-LAKE CHELAN DAM07-22-2021INFLOW (KAF)14325157
13ABOM8CLARK FORK-ABOVE MISSOULA07-22-2021DISCHARGE (KAF)32539582
14DLGM8CLARK FORK-AT DEER LODGE07-22-2021DISCHARGE (KAF)294664
15SRGM8CLARK FORK-AT ST REGIS07-22-2021DISCHARGE (KAF)64083277
16BELM8CLARK FORK-BELOW MISSOULA07-22-2021DISCHARGE (KAF)51063580
17CABI1CLARK FORK-CABINET GORGE DAM07-22-2021INFLOW (KAF)2397317376
18NOXM8CLARK FORK-NOXON RAPIDS DAM07-22-2021INFLOW (KAF)2175299073
19DRMM8CLARK FORK-NR DRUMMOND07-22-2021DISCHARGE (KAF)90MM
20CLUW1CLE ELUM-CLE ELUM LAKE07-22-2021INFLOW (KAF)7878100
21ORFI1CLEARWATER-AT OROFINO07-22-2021DISCHARGE (KAF)37952472
22SPDI1CLEARWATER-AT SPALDING07-22-2021DISCHARGE (KAF)14231052135
23COEI1COEUR D ALENE-COEUR D ALENE LAKE07-22-2021INFLOW (KAF)18423379
24CIBW1COLUMBIA-AT INTL BOUNDARY07-22-2021DISCHARGE (KAF)15329MM
25BONO3COLUMBIA-BONNEVILLE DAM07-22-2021INFLOW (KAF)231863084475
26CHJW1COLUMBIA-CHIEF JOSEPH DAM07-22-2021INFLOW (KAF)151672068373
27GCDW1COLUMBIA-GRAND COULEE DAM07-22-2021INFLOW (KAF)158622141874
28JDAO3COLUMBIA-JOHN DAY DAM07-22-2021INFLOW (KAF)222072936476
29MCDW1COLUMBIA-MCNARY DAM07-22-2021INFLOW (KAF)218352888476
30PRWW1COLUMBIA-PRIEST RAPIDS DAM07-22-2021INFLOW (KAF)160952219173
31RRHW1COLUMBIA-ROCKY REACH DAM07-22-2021INFLOW (KAF)157722149173
32TDAO3COLUMBIA-THE DALLES DAM07-22-2021INFLOW (KAF)227962976577
33WANW1COLUMBIA-WANAPUM DAM07-22-2021INFLOW (KAF)160872174574
34WELW1COLUMBIA-WELLS DAM07-22-2021INFLOW (KAF)154532095074
35DEDI1DEADWOOD-NEAR LOWMAN07-22-2021INFLOW (KAF)122059
36MODO3DESCHUTES-AT MOODY NR BIGGS07-22-2021DISCHARGE (KAF)1079111197
37ARDW1ENTIAT-NEAR ARDENVOIR07-22-2021DISCHARGE (KAF)233567
38CHEI1FALL RIVER-NEAR CHESTER07-22-2021DISCHARGE (KAF)717989
39CFMM8FLATHEAD-AT COLUMBIA FALLS07-22-2021DISCHARGE (KAF)941123476
40KERM8FLATHEAD-SELI’Š KSANKA QLISPE’ DAM07-22-2021INFLOW (KAF)979146667
41TRYO3GRANDE RONDE-TROY07-22-2021DISCHARGE (KAF)10620552
42REXI1HENRYS FORK-AT REXBURG07-22-2021DISCHARGE (KAF)31937984
43ANTI1HENRYS FORK-AT ST. ANTHONY07-22-2021DISCHARGE (KAF)27732186
44IPDI1HENRYS FORK-ISLAND PARK DAM07-22-2021INFLOW (KAF)10514573
45HODO3HOOD-NEAR TUCKER BRIDGE07-22-2021DISCHARGE (KAF)949895
46SERO3JOHN DAY-AT SERVICE CK07-22-2021DISCHARGE (KAF)356255
47KADW1KACHESS-KACHESS DAM07-22-2021INFLOW (KAF)2718153
48LAUW1KETTLE-AT LAURIER07-22-2021DISCHARGE (KAF)8716054
49PITW1KLICKITAT-NEAR PITT07-22-2021DISCHARGE (KAF)14919377
50BFEI1KOOTENAI-AT BONNERS FERRY07-22-2021STAGE (FT)MMM
51LEOI1KOOTENAI-AT LEONIA07-22-2021DISCHARGE (KAF)1494229265
52LYDM8KOOTENAI-LIBBY DAM07-22-2021INFLOW (KAF)1130179063
53LWRI1LITTLE WOOD-LITTLE WOOD DAM07-22-2021INFLOW (KAF)51534
54BERO3MALHEUR-AGENCY VALLEY DAM07-22-2021INFLOW (KAF)6785
55WRMO3MALHEUR-WARM SPRINGS DAM07-22-2021INFLOW (KAF)54109
56MYKO3MCKAY CREEK-NEAR PILOT ROCK07-22-2021DISCHARGE (KAF)0151
57PATW1METHOW-NEAR PATEROS07-22-2021DISCHARGE (KAF)9813672
58WGCM8MF FLATHEAD-NEAR WEST GLACIER07-22-2021DISCHARGE (KAF)18126967
59CLFW1NACHES-NEAR CLIFFDEL07-22-2021DISCHARGE (KAF)8685101
60NACW1NACHES-NEAR NACHES07-22-2021DISCHARGE (KAF)10412186
61DWRI1NF CLEARWATER-DWORSHAK DAM07-22-2021INFLOW (KAF)25937769
62FCFM8NF FLATHEAD-NEAR COLUMBIA FALLS07-22-2021DISCHARGE (KAF)18732358
63MONO3NF JOHN DAY-AT MONUMENT07-22-2021DISCHARGE (KAF)243766
64CSDI1NF PAYETTE-CASCADE DAM07-22-2021INFLOW (KAF)616792
65TONW1OKANOGAN-NEAR TONASKET07-22-2021DISCHARGE (KAF)16831653
66OWYO3OWYHEE-OWYHEE DAM07-22-2021INFLOW (KAF)325162
67EMMI1PAYETTE-NEAR EMMETT07-22-2021DISCHARGE (KAF)25640763
68ALFW1PEND OREILLE-ALBENI FALLS DAM07-22-2021INFLOW (KAF)2468345172
69HOPI1PEND OREILLE-PEND OREILLE LAKE NR HOPE07-22-2021LAKE ELEVATION (FT)MMM
70PIHI1PORTNEUF-AT POCATELLO07-22-2021DISCHARGE (KAF)133143
71PRTI1PRIEST-NEAR PRIEST RIVER07-22-2021DISCHARGE (KAF)13116678
72RCCM8ROCK CREEK-NEAR CLINTON07-22-2021DISCHARGE (KAF)636991
73WHBI1SALMON-AT WHITEBIRD07-22-2021DISCHARGE (KAF)867126968
74ARAI1SF BOISE-ANDERSON RANCH DAM07-22-2021INFLOW (KAF)587478
75HHWM8SF FLATHEAD-HUNGRY HORSE DAM07-22-2021INFLOW (KAF)18626072
76PLDI1SF SNAKE-PALISADES DAM07-22-2021INFLOW (KAF)1274129299
77SIFI1SNAKE-AB EAGLE ROCK NR IDAHO FALLS07-22-2021DISCHARGE (KAF)11881182100
78AFRI1SNAKE-AMERICAN FALLS RESERVOIR07-22-2021INFLOW (KAF)13091239106
79SNAI1SNAKE-AT BLACKFOOT07-22-2021DISCHARGE (KAF)709583122
80MILI1SNAKE-AT MILNER07-22-2021DISCHARGE (KAF)360151238
81WEII1SNAKE-AT WEISER07-22-2021DISCHARGE (KAF)2775307990
82SWAI1SNAKE-BELOW SWAN FALLS07-22-2021DISCHARGE (KAF)1980210394
83BRNI1SNAKE-BROWNLEE DAM07-22-2021INFLOW (KAF)2897313492
84IHDW1SNAKE-ICE HARBOR DAM07-22-2021INFLOW (KAF)5166582489
85JLKW4SNAKE-JACKSON LAKE AT DAM07-22-2021INFLOW (KAF)11116467
86LGSW1SNAKE-LITTLE GOOSE DAM07-22-2021INFLOW (KAF)5154590187
87LGDW1SNAKE-LOWER GRANITE DAM07-22-2021INFLOW (KAF)5137586088
88LMNW1SNAKE-LOWER MONUMENTAL DAM07-22-2021INFLOW (KAF)5166591987
89ALPW4SNAKE-NEAR ALPINE07-22-2021DISCHARGE (KAF)1046937112
90ANAW1SNAKE-NEAR ANATONE07-22-2021DISCHARGE (KAF)3719474378
91BFTI1SNAKE-NEAR BLACKFOOT07-22-2021DISCHARGE (KAF)716578124
92HEII1SNAKE-NEAR HEISE07-22-2021DISCHARGE (KAF)1580160798
93JKSW4SNAKE-NEAR JACKSON07-22-2021DISCHARGE (KAF)950786121
94SHYI1SNAKE-NEAR SHELLEY07-22-2021DISCHARGE (KAF)1079937115
95LLKW1SPOKANE-AT LONGLAKE07-22-2021INFLOW (KAF)43861272
96SPOW1SPOKANE-AT SPOKANE07-22-2021DISCHARGE (KAF)288MM
97SJMI1ST JOE-AT ST MARIES07-22-2021STAGE (FT)MMM
98SATI1ST MARIES-NEAR SANTA07-22-2021DISCHARGE (KAF)131876
99STRM8ST. REGIS-NEAR ST. REGIS07-22-2021DISCHARGE (KAF)253180
100TNAW1TEANAWAY-BELOW FORKS07-22-2021DISCHARGE (KAF)81087
101TEAI1TETON-NEAR ST. ANTHONY07-22-2021DISCHARGE (KAF)12816677
102RILW1TIETON-RIMROCK LAKE NEAR RIMROCK07-22-2021INFLOW (KAF)7067105
103PDTO3UMATILLA-AT PENDLETON07-22-2021DISCHARGE (KAF)121489
104GIBO3UMATILLA-NEAR GIBBON07-22-2021DISCHARGE (KAF)101277
105UMAO3UMATILLA-NEAR UMATILLA07-22-2021DISCHARGE (KAF)4212334
106TCHW1WALLA WALLA-NEAR TOUCHET07-22-2021DISCHARGE (KAF)61155
107WSRI1WEISER-NEAR WEISER07-22-2021DISCHARGE (KAF)445185
108PESW1WENATCHEE-AT PESHASTIN07-22-2021DISCHARGE (KAF)21229572
109UNDW1WHITE SALMON-NEAR UNDERWOOD07-22-2021DISCHARGE (KAF)13115982
110RIDI1WILLOW CREEK-RIRIE DAM07-22-2021INFLOW (KAF)2636
111EASW1YAKIMA-AT EASTON07-22-2021DISCHARGE (KAF)647289
112KIOW1YAKIMA-AT KIONA07-22-2021DISCHARGE (KAF)41846790
113UMTW1YAKIMA-AT UMTANUM07-22-2021DISCHARGE (KAF)537529101
114KEDW1YAKIMA-KEECHELUS LAKE07-22-2021INFLOW (KAF)3828139
115PARW1YAKIMA-NEAR PARKER07-22-2021DISCHARGE (KAF)15416692